Find Orsted

NORAD ID: 25635 Int'l Des: 1999-008 Owner: DMI Country: DK operational
LEORETROGRADE

实时位置

正在加载3D地球...

关于 Orsted

正在加载描述...

即将过境

Passes for default location (London). Set your location on the main map for personalized predictions.

高度历史

Loading altitude history...

两行轨道根数

1 25635U 99008B 26104.49597473 .00000472 00000-0 11194-3 0 9990
2 25635 96.4832 26.4744 0132865 31.6101 329.2993 14.51739931432727
Epoch: Apr 14, 2026 • Age: 13 hours

当前状态

高度 814.8 km
速度 7.41 km/s
星下点 -72.14°S, 26.55°W
发射日期 Feb 23, 1999
运行时间 27.1 years
类型 other

技术详情

分类 Payload
质量 62.00 kg
干质量 62.00 kg
总质量 62.00 kg
长度 0.80 m
直径 0.50 m
跨度 8.00 m
形状 Box + Ant
制造商 TERMAB
平台类型 Orsted
阶段状态 In Orbit
所有者/国家 DMI/DK

Most Searched